Time,TemperatureF,DewpointF,PressureIn,WindDirection,WindDirectionDegrees,WindSpeedMPH,WindSpeedGustMPH,Humidity,HourlyPrecipIn,Conditions,Clouds,dailyrainin,SoftwareType,DateUTC
2013-06-06 00:02:00,45.0,44.0,-100.00,SSE,155,7.0,12.0,95,0.00,,,0.91,,2013-06-06 08:02:00,
2013-06-06 00:12:00,45.0,44.0,-100.00,SSE,155,7.0,12.0,95,0.00,,,0.91,,2013-06-06 08:12:00,
2013-06-06 00:22:00,45.0,44.0,-100.00,SSE,160,6.0,10.0,95,0.01,,,0.92,,2013-06-06 08:22:00,
2013-06-06 00:32:00,45.0,44.0,-100.00,SSE,160,6.0,10.0,95,0.01,,,0.92,,2013-06-06 08:32:00,
2013-06-06 00:42:00,45.0,44.0,-100.00,SSE,160,6.0,10.0,95,0.01,,,0.92,,2013-06-06 08:42:00,
2013-06-06 00:52:00,42.0,40.0,-100.00,SSE,150,9.0,11.0,95,0.01,,,0.86,,2013-06-06 08:52:00,
2013-06-06 01:02:00,42.0,40.0,-100.00,SSE,150,9.0,11.0,95,0.01,,,0.86,,2013-06-06 09:02:00,
2013-06-06 01:12:00,42.0,40.0,-100.00,SSE,150,9.0,11.0,95,0.01,,,0.86,,2013-06-06 09:12:00,
2013-06-06 01:22:00,42.0,40.0,-100.00,SE,140,7.0,11.0,95,0.00,,,0.83,,2013-06-06 09:22:00,
2013-06-06 01:33:00,42.0,40.0,-100.00,SE,140,7.0,11.0,95,0.00,,,0.83,,2013-06-06 09:33:00,
2013-06-06 01:43:00,42.0,40.0,-100.00,SE,140,7.0,11.0,95,0.00,,,0.83,,2013-06-06 09:43:00,
2013-06-06 01:53:00,43.0,41.0,-100.00,SSE,150,9.0,10.0,95,0.00,,,0.82,,2013-06-06 09:53:00,
2013-06-06 02:03:00,43.0,41.0,-100.00,SSE,150,9.0,10.0,95,0.00,,,0.82,,2013-06-06 10:03:00,
2013-06-06 02:12:00,43.0,41.0,-100.00,SSE,150,9.0,10.0,95,0.00,,,0.82,,2013-06-06 10:12:00,
2013-06-06 02:22:00,43.0,41.0,-100.00,SSE,150,7.0,12.0,95,0.00,,,0.82,,2013-06-06 10:22:00,
2013-06-06 02:33:00,43.0,41.0,-100.00,SSE,150,7.0,12.0,95,0.00,,,0.82,,2013-06-06 10:33:00,
2013-06-06 02:42:00,43.0,41.0,-100.00,SSE,150,7.0,12.0,95,0.00,,,0.82,,2013-06-06 10:42:00,
2013-06-06 02:53:00,43.0,42.0,-100.00,SSW,200,5.0,7.0,95,0.00,,,0.81,,2013-06-06 10:53:00,
2013-06-06 03:02:00,43.0,42.0,-100.00,SSW,200,5.0,7.0,95,0.00,,,0.81,,2013-06-06 11:02:00,
2013-06-06 03:12:00,43.0,42.0,-100.00,SSW,200,5.0,7.0,95,0.00,,,0.81,,2013-06-06 11:12:00,
2013-06-06 03:22:00,43.0,42.0,-100.00,SE,130,4.0,6.0,95,0.00,,,0.78,,2013-06-06 11:22:00,
2013-06-06 03:32:00,43.0,42.0,-100.00,SE,130,4.0,6.0,95,0.00,,,0.78,,2013-06-06 11:32:00,
2013-06-06 03:42:00,43.0,42.0,-100.00,SE,130,4.0,6.0,95,0.00,,,0.78,,2013-06-06 11:42:00,
2013-06-06 03:52:00,43.0,42.0,-100.00,SSE,150,6.0,8.0,95,0.00,,,0.78,,2013-06-06 11:52:00,
2013-06-06 04:02:00,43.0,42.0,-100.00,SSE,150,6.0,8.0,95,0.00,,,0.78,,2013-06-06 12:02:00,
2013-06-06 04:12:00,43.0,42.0,-100.00,SSE,150,6.0,8.0,95,0.00,,,0.78,,2013-06-06 12:12:00,
2013-06-06 04:22:00,43.0,42.0,-100.00,SE,135,6.0,9.0,95,0.00,,,0.78,,2013-06-06 12:22:00,
2013-06-06 04:32:00,43.0,42.0,-100.00,SE,135,6.0,9.0,95,0.00,,,0.78,,2013-06-06 12:32:00,
2013-06-06 04:42:00,43.0,42.0,-100.00,SE,135,6.0,9.0,95,0.00,,,0.78,,2013-06-06 12:42:00,
2013-06-06 04:53:00,43.0,41.0,-100.00,South,175,3.0,7.0,95,0.00,,,0.76,,2013-06-06 12:53:00,
2013-06-06 05:03:00,43.0,41.0,-100.00,South,175,3.0,7.0,95,0.00,,,0.76,,2013-06-06 13:03:00,
2013-06-06 05:12:00,43.0,41.0,-100.00,South,175,3.0,7.0,95,0.00,,,0.76,,2013-06-06 13:12:00,
2013-06-06 05:22:00,43.0,41.0,-100.00,SE,130,3.0,7.0,95,0.00,,,0.75,,2013-06-06 13:22:00,
2013-06-06 05:32:00,43.0,41.0,-100.00,SE,130,3.0,7.0,95,0.00,,,0.75,,2013-06-06 13:32:00,
2013-06-06 05:42:00,43.0,41.0,-100.00,SE,130,3.0,7.0,95,0.00,,,0.75,,2013-06-06 13:42:00,
2013-06-06 05:53:00,43.0,41.0,-100.00,SE,140,4.0,7.0,93,0.00,,,0.73,,2013-06-06 13:53:00,
2013-06-06 06:03:00,43.0,41.0,-100.00,SE,140,4.0,7.0,93,0.00,,,0.73,,2013-06-06 14:03:00,
2013-06-06 06:12:00,43.0,41.0,-100.00,SE,140,4.0,7.0,93,0.00,,,0.73,,2013-06-06 14:12:00,
2013-06-06 06:22:00,43.0,41.0,-100.00,SE,140,4.0,7.0,92,0.00,,,0.72,,2013-06-06 14:22:00,
2013-06-06 06:32:00,43.0,41.0,-100.00,SE,140,4.0,7.0,92,0.00,,,0.72,,2013-06-06 14:32:00,
2013-06-06 06:42:00,43.0,41.0,-100.00,SE,140,4.0,7.0,92,0.00,,,0.72,,2013-06-06 14:42:00,
2013-06-06 06:53:00,43.0,41.0,-100.00,SSE,160,4.0,4.0,92,0.00,,,0.71,,2013-06-06 14:53:00,
2013-06-06 07:03:00,43.0,41.0,-100.00,SSE,160,4.0,4.0,92,0.00,,,0.71,,2013-06-06 15:03:00,
2013-06-06 07:22:00,44.0,41.0,-100.00,SE,145,4.0,6.0,90,0.00,,,0.68,,2013-06-06 15:22:00,
2013-06-06 07:33:00,44.0,41.0,-100.00,SE,145,4.0,6.0,90,0.00,,,0.68,,2013-06-06 15:33:00,
2013-06-06 07:43:00,44.0,41.0,-100.00,SE,145,4.0,6.0,90,0.00,,,0.68,,2013-06-06 15:43:00,
2013-06-06 07:52:00,45.0,42.0,-100.00,South,180,3.0,5.0,89,0.00,,,0.68,,2013-06-06 15:52:00,
2013-06-06 08:03:00,45.0,42.0,-100.00,South,180,3.0,5.0,89,0.00,,,0.68,,2013-06-06 16:03:00,
2013-06-06 08:12:00,45.0,42.0,-100.00,South,180,3.0,5.0,89,0.00,,,0.68,,2013-06-06 16:12:00,
2013-06-06 08:22:00,45.0,42.0,-100.00,SE,135,3.0,6.0,89,0.00,,,0.68,,2013-06-06 16:22:00,
2013-06-06 08:33:00,45.0,42.0,-100.00,SE,135,3.0,6.0,89,0.00,,,0.68,,2013-06-06 16:33:00,
2013-06-06 08:43:00,45.0,42.0,-100.00,SE,135,3.0,6.0,89,0.00,,,0.68,,2013-06-06 16:43:00,
2013-06-06 08:53:00,45.0,42.0,-100.00,South,170,3.0,6.0,89,0.00,,,0.66,,2013-06-06 16:53:00,
2013-06-06 09:03:00,45.0,42.0,-100.00,South,170,3.0,6.0,89,0.00,,,0.66,,2013-06-06 17:03:00,
2013-06-06 09:12:00,45.0,42.0,-100.00,South,170,3.0,6.0,89,0.00,,,0.66,,2013-06-06 17:12:00,
2013-06-06 09:22:00,45.0,42.0,-100.00,SE,130,3.0,5.0,89,0.00,,,0.66,,2013-06-06 17:22:00,
2013-06-06 09:32:00,45.0,42.0,-100.00,SE,130,3.0,5.0,89,0.00,,,0.66,,2013-06-06 17:32:00,
2013-06-06 09:42:00,45.0,42.0,-100.00,SE,130,3.0,5.0,89,0.00,,,0.66,,2013-06-06 17:42:00,
2013-06-06 09:53:00,47.0,43.0,-100.00,SSE,155,5.0,8.0,87,0.00,,,0.62,,2013-06-06 17:53:00,
2013-06-06 10:03:00,47.0,43.0,-100.00,SSE,155,5.0,8.0,87,0.00,,,0.62,,2013-06-06 18:03:00,
2013-06-06 10:12:00,47.0,43.0,-100.00,SSE,155,5.0,8.0,87,0.00,,,0.62,,2013-06-06 18:12:00,
2013-06-06 10:22:00,47.0,43.0,-100.00,SSE,165,6.0,7.0,86,0.00,,,0.59,,2013-06-06 18:22:00,
2013-06-06 10:33:00,47.0,43.0,-100.00,SSE,165,6.0,7.0,86,0.00,,,0.59,,2013-06-06 18:33:00,
2013-06-06 10:43:00,47.0,43.0,-100.00,SSE,165,6.0,7.0,86,0.00,,,0.59,,2013-06-06 18:43:00,
2013-06-06 10:53:00,50.0,42.0,-100.00,SSE,165,5.0,12.0,75,0.00,,,0.52,,2013-06-06 18:53:00,
2013-06-06 11:02:00,50.0,42.0,-100.00,SSE,165,5.0,12.0,75,0.00,,,0.52,,2013-06-06 19:02:00,
2013-06-06 11:12:00,50.0,42.0,-100.00,SSE,165,5.0,12.0,75,0.00,,,0.52,,2013-06-06 19:12:00,
2013-06-06 11:23:00,50.0,42.0,-100.00,SSE,165,5.0,12.0,75,0.00,,,0.52,,2013-06-06 19:23:00,
2013-06-06 11:53:00,49.0,42.0,-100.00,SSE,155,7.0,12.0,76,0.00,,,0.42,,2013-06-06 19:53:00,
2013-06-06 12:03:00,49.0,42.0,-100.00,SSE,155,7.0,12.0,76,0.00,,,0.42,,2013-06-06 20:03:00,
2013-06-06 12:12:00,49.0,42.0,-100.00,SSE,155,7.0,12.0,76,0.00,,,0.42,,2013-06-06 20:12:00,
2013-06-06 12:22:00,50.0,42.0,-100.00,SSE,155,5.0,11.0,74,0.00,,,0.40,,2013-06-06 20:22:00,
2013-06-06 12:33:00,50.0,42.0,-100.00,SSE,155,5.0,11.0,74,0.00,,,0.40,,2013-06-06 20:33:00,
2013-06-06 12:42:00,50.0,42.0,-100.00,SSE,155,5.0,11.0,74,0.00,,,0.40,,2013-06-06 20:42:00,
2013-06-06 12:53:00,50.0,44.0,-100.00,South,180,6.0,11.0,79,0.00,,,0.33,,2013-06-06 20:53:00,
2013-06-06 13:03:00,50.0,44.0,-100.00,South,180,6.0,11.0,79,0.00,,,0.33,,2013-06-06 21:03:00,
2013-06-06 13:12:00,50.0,44.0,-100.00,South,180,6.0,11.0,79,0.00,,,0.33,,2013-06-06 21:12:00,
2013-06-06 13:22:00,51.0,43.0,-100.00,South,180,4.0,8.0,74,0.00,,,0.32,,2013-06-06 21:22:00,
2013-06-06 13:33:00,51.0,43.0,-100.00,South,180,4.0,8.0,74,0.00,,,0.32,,2013-06-06 21:33:00,
2013-06-06 13:43:00,51.0,43.0,-100.00,South,180,4.0,8.0,74,0.00,,,0.32,,2013-06-06 21:43:00,
2013-06-06 13:53:00,51.0,40.0,-100.00,South,170,5.0,10.0,66,0.00,,,0.28,,2013-06-06 21:53:00,
2013-06-06 14:02:00,51.0,40.0,-100.00,South,170,5.0,10.0,66,0.00,,,0.28,,2013-06-06 22:02:00,
2013-06-06 14:13:00,51.0,40.0,-100.00,South,170,5.0,10.0,66,0.00,,,0.28,,2013-06-06 22:13:00,
2013-06-06 14:23:00,52.0,39.0,-100.00,West,265,6.0,15.0,61,0.00,,,0.27,,2013-06-06 22:23:00,
2013-06-06 14:33:00,52.0,39.0,-100.00,West,265,6.0,15.0,61,0.00,,,0.27,,2013-06-06 22:33:00,
2013-06-06 14:43:00,52.0,39.0,-100.00,West,265,6.0,15.0,61,0.00,,,0.27,,2013-06-06 22:43:00,
2013-06-06 14:53:00,51.0,40.0,-100.00,South,180,7.0,12.0,67,0.00,,,0.24,,2013-06-06 22:53:00,
2013-06-06 15:02:00,51.0,40.0,-100.00,South,180,7.0,12.0,67,0.00,,,0.24,,2013-06-06 23:02:00,
2013-06-06 15:12:00,51.0,40.0,-100.00,South,180,7.0,12.0,67,0.00,,,0.24,,2013-06-06 23:12:00,
2013-06-06 15:22:00,47.0,42.0,-100.00,NW,320,11.0,19.0,82,0.00,,,0.23,,2013-06-06 23:22:00,
2013-06-06 15:33:00,47.0,42.0,-100.00,NW,320,11.0,19.0,82,0.00,,,0.23,,2013-06-06 23:33:00,
2013-06-06 15:42:00,47.0,42.0,-100.00,NW,320,11.0,19.0,82,0.00,,,0.23,,2013-06-06 23:42:00,
2013-06-06 15:52:00,48.0,44.0,-100.00,North,0,4.0,9.0,85,0.00,,,0.20,,2013-06-06 23:52:00,
2013-06-06 16:02:00,48.0,44.0,-100.00,North,0,4.0,9.0,85,0.00,,,0.20,,2013-06-07 00:02:00,
2013-06-06 16:12:00,48.0,44.0,-100.00,North,0,4.0,9.0,85,0.00,,,0.20,,2013-06-07 00:12:00,
2013-06-06 16:22:00,50.0,44.0,-100.00,NW,315,6.0,9.0,79,0.00,,,0.20,,2013-06-07 00:22:00,
2013-06-06 16:32:00,50.0,44.0,-100.00,NW,315,6.0,9.0,79,0.00,,,0.20,,2013-06-07 00:32:00,
2013-06-06 16:42:00,50.0,44.0,-100.00,NW,315,6.0,9.0,79,0.00,,,0.20,,2013-06-07 00:42:00,
2013-06-06 16:52:00,53.0,42.0,-100.00,NW,325,5.0,9.0,66,0.00,,,0.20,,2013-06-07 00:52:00,
2013-06-06 17:02:00,53.0,42.0,-100.00,NW,325,5.0,9.0,66,0.00,,,0.20,,2013-06-07 01:02:00,
2013-06-06 17:12:00,53.0,42.0,-100.00,NW,325,5.0,9.0,66,0.00,,,0.20,,2013-06-07 01:12:00,
2013-06-06 17:22:00,54.0,39.0,-100.00,WNW,285,7.0,12.0,59,0.00,,,0.19,,2013-06-07 01:22:00,
2013-06-06 17:32:00,54.0,39.0,-100.00,WNW,285,7.0,12.0,59,0.00,,,0.19,,2013-06-07 01:32:00,
2013-06-06 17:42:00,54.0,39.0,-100.00,WNW,285,7.0,12.0,59,0.00,,,0.19,,2013-06-07 01:42:00,
2013-06-06 17:52:00,53.0,37.0,-100.00,NW,315,7.0,12.0,55,0.00,,,0.16,,2013-06-07 01:52:00,
2013-06-06 18:02:00,53.0,37.0,-100.00,NW,315,7.0,12.0,55,0.00,,,0.16,,2013-06-07 02:02:00,
2013-06-06 18:12:00,53.0,37.0,-100.00,NW,315,7.0,12.0,55,0.00,,,0.16,,2013-06-07 02:12:00,
2013-06-06 18:22:00,53.0,38.0,-100.00,WNW,290,2.0,7.0,57,0.00,,,0.06,,2013-06-07 02:22:00,
2013-06-06 18:32:00,53.0,38.0,-100.00,WNW,290,2.0,7.0,57,0.00,,,0.06,,2013-06-07 02:32:00,
2013-06-06 18:42:00,53.0,38.0,-100.00,WNW,290,2.0,7.0,57,0.00,,,0.06,,2013-06-07 02:42:00,
2013-06-06 18:52:00,53.0,38.0,-100.00,West,260,5.0,9.0,56,0.00,,,0.02,,2013-06-07 02:52:00,
2013-06-06 19:02:00,53.0,38.0,-100.00,West,260,5.0,9.0,56,0.00,,,0.02,,2013-06-07 03:02:00,
2013-06-06 19:12:00,53.0,38.0,-100.00,West,260,5.0,9.0,56,0.00,,,0.02,,2013-06-07 03:12:00,
2013-06-06 19:22:00,54.0,37.0,-100.00,West,280,4.0,9.0,54,0.00,,,0.02,,2013-06-07 03:22:00,
2013-06-06 19:33:00,54.0,37.0,-100.00,West,280,4.0,9.0,54,0.00,,,0.02,,2013-06-07 03:33:00,
2013-06-06 19:43:00,54.0,37.0,-100.00,West,280,4.0,9.0,54,0.00,,,0.02,,2013-06-07 03:43:00,
2013-06-06 19:53:00,55.0,35.0,-100.00,West,260,4.0,9.0,47,0.00,,,0.02,,2013-06-07 03:53:00,
2013-06-06 20:03:00,55.0,35.0,-100.00,West,260,4.0,9.0,47,0.00,,,0.02,,2013-06-07 04:03:00,
2013-06-06 20:22:00,54.0,37.0,-100.00,NW,315,6.0,11.0,53,0.00,,,0.01,,2013-06-07 04:22:00,
2013-06-06 20:33:00,54.0,37.0,-100.00,NW,315,6.0,11.0,53,0.00,,,0.01,,2013-06-07 04:33:00,
2013-06-06 20:42:00,54.0,37.0,-100.00,NW,315,6.0,11.0,53,0.00,,,0.01,,2013-06-07 04:42:00,
2013-06-06 20:53:00,54.0,38.0,-100.00,West,280,2.0,7.0,55,0.00,,,0.01,,2013-06-07 04:53:00,
2013-06-06 21:03:00,54.0,38.0,-100.00,West,280,2.0,7.0,55,0.00,,,0.01,,2013-06-07 05:03:00,
2013-06-06 21:12:00,54.0,38.0,-100.00,West,280,2.0,7.0,55,0.00,,,0.01,,2013-06-07 05:12:00,
2013-06-06 21:22:00,54.0,38.0,-100.00,NW,315,6.0,9.0,55,0.00,,,0.01,,2013-06-07 05:22:00,
2013-06-06 21:32:00,54.0,38.0,-100.00,NW,315,6.0,9.0,55,0.00,,,0.01,,2013-06-07 05:32:00,
2013-06-06 21:42:00,54.0,38.0,-100.00,NW,315,6.0,9.0,55,0.00,,,0.01,,2013-06-07 05:42:00,
2013-06-06 21:52:00,51.0,38.0,-100.00,NNW,335,2.0,6.0,61,0.00,,,0.01,,2013-06-07 05:52:00,
2013-06-06 22:02:00,51.0,38.0,-100.00,NNW,335,2.0,6.0,61,0.00,,,0.01,,2013-06-07 06:02:00,
2013-06-06 22:12:00,51.0,38.0,-100.00,NNW,335,2.0,6.0,61,0.00,,,0.01,,2013-06-07 06:12:00,
2013-06-06 22:22:00,51.0,39.0,-100.00,NE,35,1.0,4.0,62,0.00,,,0.01,,2013-06-07 06:22:00,
2013-06-06 22:32:00,51.0,39.0,-100.00,NE,35,1.0,4.0,62,0.00,,,0.01,,2013-06-07 06:32:00,
2013-06-06 22:42:00,51.0,39.0,-100.00,NE,35,1.0,4.0,62,0.00,,,0.01,,2013-06-07 06:42:00,
2013-06-06 22:52:00,52.0,37.0,-100.00,NW,310,2.0,4.0,57,0.00,,,0.01,,2013-06-07 06:52:00,
2013-06-06 23:02:00,52.0,37.0,-100.00,NW,310,2.0,4.0,57,0.00,,,0.01,,2013-06-07 07:02:00,
2013-06-06 23:12:00,52.0,37.0,-100.00,NW,310,2.0,4.0,57,0.00,,,0.01,,2013-06-07 07:12:00,
2013-06-06 23:22:00,52.0,37.0,-100.00,WNW,295,1.0,3.0,56,0.00,,,0.01,,2013-06-07 07:22:00,
2013-06-06 23:32:00,52.0,37.0,-100.00,WNW,295,1.0,3.0,56,0.00,,,0.01,,2013-06-07 07:32:00,
2013-06-06 23:42:00,52.0,37.0,-100.00,WNW,295,1.0,3.0,56,0.00,,,0.01,,2013-06-07 07:42:00,
2013-06-06 23:52:00,49.0,37.0,-100.00,WNW,300,1.0,2.0,64,0.00,,,0.01,,2013-06-07 07:52:00,